Location: Dzierzno
(50.6159°N, 19.2852°E)
Time: 08:01:17
(UTC+00:00)

Resurs 01 Rocket - Pass Details

Date: 18 November 2025
Orbit: 626 x 637 km, 97.7° (Epoch: 13 December)

Event Time Altitude Azimuth Distance (km) Brightness Sun altitude
Exits shadow 15:52:48 10° 49° (NE) 2,010 3.6 -9.5°
Drops below altitude 10° 15:53:17 10° 42° (NE) 2,036 3.7 -9.6°
Sets 15:57:29 0° 3° (N) 2,949 4.8 -10.2°
